Zurück zum Katalog

STARLINK-2273

AktivKommunikationVLEO
NORAD 47993·PAYLOAD·🇺🇸 United States

Gestartet Mar 24, 2021 von Cape Canaveral Space Force Station

Loading…

Nächste Überflüge (nächste 24 Stunden)

TLE

AktuellSource: CelesTrak SupGP

Epoche: Sep 15, 2026, 02:17 UTC

1 47993C 21024S   26258.09562500  .00322030  00000+0  88848-3 0  2587
2 47993  53.1399  97.6108 0004826 221.4917  10.1490 15.92988629    16

Verfolge STARLINK-2273 in Echtzeit mit AllMySat

Download on the App Store